Time,TemperatureF,DewpointF,PressureIn,WindDirection,WindDirectionDegrees,WindSpeedMPH,WindSpeedGustMPH,Humidity,HourlyPrecipIn,Conditions,Clouds,dailyrainin,SoftwareType,DateUTC
2013-09-17 00:00:00,60.1,57.5,29.81,ESE,104,1.0,1.0,91,0.00,,,0.00,Wunderground v.1.15,2013-09-16 11:00:00,
2013-09-17 00:05:00,60.0,57.4,29.81,ESE,115,1.0,1.0,91,0.00,,,0.00,Wunderground v.1.15,2013-09-16 11:05:00,
2013-09-17 00:15:00,59.9,57.3,29.81,East,80,1.0,1.0,91,0.00,,,0.00,Wunderground v.1.15,2013-09-16 11:15:00,
2013-09-17 00:25:00,59.9,57.3,29.81,ESE,108,1.0,3.0,91,0.00,,,0.00,Wunderground v.1.15,2013-09-16 11:25:00,
2013-09-17 00:35:00,59.8,57.2,29.81,ESE,123,1.0,1.0,91,0.00,,,0.00,Wunderground v.1.15,2013-09-16 11:35:00,
2013-09-17 00:40:00,59.7,57.1,29.81,ESE,121,1.0,1.0,91,0.00,,,0.00,Wunderground v.1.15,2013-09-16 11:40:00,
2013-09-17 00:45:00,59.6,57.3,29.81,East,92,1.0,3.0,92,0.00,,,0.00,Wunderground v.1.15,2013-09-16 11:45:00,
2013-09-17 00:55:00,59.6,57.3,29.81,SE,136,2.0,2.0,92,0.00,,,0.00,Wunderground v.1.15,2013-09-16 11:55:00,
2013-09-17 01:05:00,59.6,57.3,29.81,SE,136,2.0,2.0,92,0.00,,,0.00,Wunderground v.1.15,2013-09-16 12:05:00,
2013-09-17 01:15:00,59.6,57.3,29.82,SE,130,1.0,2.0,92,0.00,,,0.00,Wunderground v.1.15,2013-09-16 12:15:00,
2013-09-17 01:20:00,59.6,57.3,29.82,East,89,2.0,3.0,92,0.00,,,0.00,Wunderground v.1.15,2013-09-16 12:20:00,
2013-09-17 01:25:00,59.5,57.2,29.82,ESE,104,2.0,3.0,92,0.00,,,0.00,Wunderground v.1.15,2013-09-16 12:25:00,
2013-09-17 01:35:00,59.4,57.1,29.82,ESE,113,1.0,2.0,92,0.00,,,0.00,Wunderground v.1.15,2013-09-16 12:35:00,
2013-09-17 01:45:00,59.4,57.1,29.82,ENE,74,2.0,2.0,92,0.00,,,0.00,Wunderground v.1.15,2013-09-16 12:45:00,
2013-09-17 01:50:00,59.3,57.0,29.82,SE,138,2.0,4.0,92,0.00,,,0.00,Wunderground v.1.15,2013-09-16 12:50:00,
2013-09-17 02:00:00,59.2,56.9,29.82,ESE,105,1.0,1.0,92,0.00,,,0.00,Wunderground v.1.15,2013-09-16 13:00:00,
2013-09-17 02:05:00,59.1,56.8,29.82,SE,129,1.0,1.0,92,0.00,,,0.00,Wunderground v.1.15,2013-09-16 13:05:00,
2013-09-17 02:15:00,59.0,56.7,29.82,East,91,1.0,1.0,92,0.00,,,0.00,Wunderground v.1.15,2013-09-16 13:15:00,
2013-09-17 02:25:00,59.0,56.7,29.82,East,98,1.0,1.0,92,0.00,,,0.00,Wunderground v.1.15,2013-09-16 13:25:00,
2013-09-17 02:35:00,59.0,57.0,29.83,East,80,1.0,1.0,93,0.00,,,0.00,Wunderground v.1.15,2013-09-16 13:35:00,
2013-09-17 02:40:00,59.0,57.0,29.83,SE,133,1.0,1.0,93,0.00,,,0.00,Wunderground v.1.15,2013-09-16 13:40:00,
2013-09-17 02:50:00,59.0,57.0,29.83,East,101,1.0,2.0,93,0.00,,,0.00,Wunderground v.1.15,2013-09-16 13:50:00,
2013-09-17 02:55:00,59.0,57.0,29.83,East,84,1.0,2.0,93,0.00,,,0.00,Wunderground v.1.15,2013-09-16 13:55:00,
2013-09-17 03:05:00,59.0,57.0,29.84,SE,131,1.0,1.0,93,0.00,,,0.00,Wunderground v.1.15,2013-09-16 14:05:00,
2013-09-17 03:15:00,59.7,57.4,29.84,SE,125,1.0,1.0,92,0.00,,,0.00,Wunderground v.1.15,2013-09-16 14:15:00,
2013-09-17 03:25:00,60.3,57.7,29.84,ESE,117,1.0,2.0,91,0.00,,,0.00,Wunderground v.1.15,2013-09-16 14:25:00,
2013-09-17 03:35:00,61.0,57.7,29.84,SE,143,1.0,1.0,89,0.00,,,0.00,Wunderground v.1.15,2013-09-16 14:35:00,
2013-09-17 03:40:00,61.4,58.1,29.84,ENE,77,1.0,1.0,89,0.00,,,0.00,Wunderground v.1.15,2013-09-16 14:40:00,
2013-09-17 03:50:00,62.0,58.4,29.84,ESE,105,1.0,3.0,88,0.00,,,0.00,Wunderground v.1.15,2013-09-16 14:50:00,
2013-09-17 04:00:00,62.5,58.6,29.84,East,92,2.0,2.0,87,0.00,,,0.00,Wunderground v.1.15,2013-09-16 15:00:00,
2013-09-17 04:05:00,62.9,59.0,29.84,ESE,112,2.0,2.0,87,0.00,,,0.00,Wunderground v.1.15,2013-09-16 15:05:00,
2013-09-17 04:15:00,63.8,59.2,29.84,SE,129,1.0,2.0,85,0.00,,,0.00,Wunderground v.1.15,2013-09-16 15:15:00,
2013-09-17 04:20:00,64.0,59.4,29.85,ESE,113,2.0,2.0,85,0.00,,,0.00,Wunderground v.1.15,2013-09-16 15:20:00,
2013-09-17 04:25:00,64.1,59.2,29.85,ESE,108,3.0,3.0,84,0.00,,,0.00,Wunderground v.1.15,2013-09-16 15:25:00,
2013-09-17 04:35:00,64.7,59.4,29.85,SE,144,3.0,4.0,83,0.00,,,0.00,Wunderground v.1.15,2013-09-16 15:35:00,
2013-09-17 04:40:00,65.0,59.7,29.85,ESE,118,3.0,6.0,83,0.00,,,0.00,Wunderground v.1.15,2013-09-16 15:40:00,
2013-09-17 04:50:00,65.4,59.4,29.85,SSE,150,4.0,4.0,81,0.00,,,0.00,Wunderground v.1.15,2013-09-16 15:50:00,
2013-09-17 04:55:00,65.7,59.7,29.85,ESE,117,3.0,5.0,81,0.00,,,0.00,Wunderground v.1.15,2013-09-16 15:55:00,
2013-09-17 05:05:00,66.7,60.0,29.85,ESE,122,2.0,3.0,79,0.00,,,0.00,Wunderground v.1.15,2013-09-16 16:05:00,
2013-09-17 05:15:00,67.0,60.3,29.85,ENE,74,3.0,4.0,79,0.00,,,0.00,Wunderground v.1.15,2013-09-16 16:15:00,
2013-09-17 05:20:00,67.5,60.4,29.85,SE,143,3.0,3.0,78,0.00,,,0.00,Wunderground v.1.15,2013-09-16 16:20:00,
2013-09-17 05:30:00,67.9,60.1,29.86,East,89,2.0,3.0,76,0.00,,,0.00,Wunderground v.1.15,2013-09-16 16:30:00,
2013-09-17 05:35:00,68.2,60.3,29.86,SE,129,2.0,3.0,76,0.00,,,0.00,Wunderground v.1.15,2013-09-16 16:35:00,
2013-09-17 05:45:00,69.0,60.4,29.85,ESE,121,2.0,2.0,74,0.00,,,0.00,Wunderground v.1.15,2013-09-16 16:45:00,
2013-09-17 05:50:00,69.2,60.6,29.85,ENE,72,2.0,4.0,74,0.00,,,0.00,Wunderground v.1.15,2013-09-16 16:50:00,
2013-09-17 06:00:00,69.6,60.9,29.85,ENE,74,2.0,5.0,74,0.00,,,0.00,Wunderground v.1.15,2013-09-16 17:00:00,
2013-09-17 06:05:00,70.1,60.7,29.85,SE,124,2.0,5.0,72,0.00,,,0.00,Wunderground v.1.15,2013-09-16 17:05:00,
2013-09-17 06:15:00,70.9,61.0,29.85,SE,130,1.0,3.0,71,0.00,,,0.00,Wunderground v.1.15,2013-09-16 17:15:00,
2013-09-17 06:25:00,71.8,60.7,29.85,ESE,115,2.0,3.0,68,0.00,,,0.00,Wunderground v.1.15,2013-09-16 17:25:00,
2013-09-17 06:30:00,72.2,60.6,29.86,SSW,197,2.0,2.0,67,0.00,,,0.00,Wunderground v.1.15,2013-09-16 17:30:00,
2013-09-17 06:40:00,72.6,60.6,29.85,ENE,75,2.0,2.0,66,0.00,,,0.00,Wunderground v.1.15,2013-09-16 17:40:00,
2013-09-17 06:50:00,73.1,60.6,29.85,SSE,167,2.0,2.0,65,0.00,,,0.00,Wunderground v.1.15,2013-09-16 17:50:00,
2013-09-17 06:55:00,73.4,60.9,29.85,SW,232,2.0,3.0,65,0.00,,,0.00,Wunderground v.1.15,2013-09-16 17:55:00,
2013-09-17 07:05:00,73.3,60.4,29.85,South,181,2.0,3.0,64,0.00,,,0.00,Wunderground v.1.15,2013-09-16 18:05:00,
2013-09-17 07:15:00,74.8,60.9,29.85,SSE,167,1.0,2.0,62,0.00,,,0.00,Wunderground v.1.15,2013-09-16 18:15:00,
2013-09-17 07:25:00,75.5,60.6,29.85,WSW,256,1.0,2.0,60,0.00,,,0.00,Wunderground v.1.15,2013-09-16 18:25:00,
2013-09-17 07:35:00,75.0,60.6,29.85,SSW,193,3.0,3.0,61,0.00,,,0.00,Wunderground v.1.15,2013-09-16 18:35:00,
2013-09-17 07:45:00,76.4,61.0,29.85,SW,221,1.0,2.0,59,0.00,,,0.00,Wunderground v.1.15,2013-09-16 18:45:00,
2013-09-17 07:55:00,76.1,61.2,29.85,South,184,2.0,2.0,60,0.00,,,0.00,Wunderground v.1.15,2013-09-16 18:55:00,
2013-09-17 08:00:00,76.8,60.9,29.85,SW,231,2.0,4.0,58,0.00,,,0.00,Wunderground v.1.15,2013-09-16 19:00:00,
2013-09-17 08:05:00,77.2,61.3,29.84,WNW,296,2.0,4.0,58,0.00,,,0.00,Wunderground v.1.15,2013-09-16 19:05:00,
2013-09-17 08:15:00,76.9,60.5,29.84,West,278,2.0,3.0,57,0.00,,,0.00,Wunderground v.1.15,2013-09-16 19:15:00,
2013-09-17 08:25:00,78.1,61.1,29.84,WSW,255,3.0,3.0,56,0.00,,,0.00,Wunderground v.1.15,2013-09-16 19:25:00,
2013-09-17 08:35:00,78.5,61.0,29.84,West,263,1.0,2.0,55,0.00,,,0.00,Wunderground v.1.15,2013-09-16 19:35:00,
2013-09-17 08:40:00,79.1,61.0,29.83,NNE,18,0.0,0.0,54,0.00,,,0.00,Wunderground v.1.15,2013-09-16 19:40:00,
2013-09-17 08:50:00,79.2,60.1,29.83,SW,221,2.0,4.0,52,0.00,,,0.00,Wunderground v.1.15,2013-09-16 19:50:00,
2013-09-17 09:20:00,81.6,59.4,29.82,WSW,242,2.0,2.0,47,0.00,,,0.00,Wunderground v.1.15,2013-09-16 20:20:00,
2013-09-17 09:25:00,81.8,58.4,29.82,SSE,153,2.0,2.0,45,0.00,,,0.00,Wunderground v.1.15,2013-09-16 20:25:00,
2013-09-17 09:35:00,82.5,58.4,29.82,SW,229,1.0,3.0,44,0.00,,,0.00,Wunderground v.1.15,2013-09-16 20:35:00,
2013-09-17 09:40:00,83.0,58.8,29.81,East,93,2.0,2.0,44,0.00,,,0.00,Wunderground v.1.15,2013-09-16 20:40:00,
2013-09-17 09:50:00,83.6,57.4,29.81,WSW,242,1.0,4.0,41,0.00,,,0.00,Wunderground v.1.15,2013-09-16 20:50:00,
2013-09-17 09:55:00,83.7,55.4,29.81,South,170,2.0,4.0,38,0.00,,,0.00,Wunderground v.1.15,2013-09-16 20:55:00,
2013-09-17 10:05:00,83.9,55.6,29.80,SW,222,2.0,3.0,38,0.00,,,0.00,Wunderground v.1.15,2013-09-16 21:05:00,
2013-09-17 10:15:00,83.9,56.3,29.80,South,183,3.0,3.0,39,0.00,,,0.00,Wunderground v.1.15,2013-09-16 21:15:00,
2013-09-17 10:20:00,84.4,56.0,29.79,ESE,105,2.0,2.0,38,0.00,,,0.00,Wunderground v.1.15,2013-09-16 21:20:00,
2013-09-17 10:25:00,84.7,56.3,29.79,SSE,162,1.0,6.0,38,0.00,,,0.00,Wunderground v.1.15,2013-09-16 21:25:00,
2013-09-17 10:35:00,85.2,56.0,29.78,SE,131,4.0,4.0,37,0.00,,,0.00,Wunderground v.1.15,2013-09-16 21:35:00,
2013-09-17 10:45:00,85.7,57.2,29.78,ESE,110,2.0,4.0,38,0.00,,,0.00,Wunderground v.1.15,2013-09-16 21:45:00,
2013-09-17 10:55:00,86.4,57.0,29.77,WSW,242,2.0,2.0,37,0.00,,,0.00,Wunderground v.1.15,2013-09-16 21:55:00,
2013-09-17 11:05:00,86.7,57.3,29.77,SSE,162,2.0,3.0,37,0.00,,,0.00,Wunderground v.1.15,2013-09-16 22:05:00,
2013-09-17 11:15:00,86.1,56.0,29.77,SSW,198,2.0,4.0,36,0.00,,,0.00,Wunderground v.1.15,2013-09-16 22:15:00,
2013-09-17 11:20:00,86.4,55.5,29.76,SE,139,2.0,4.0,35,0.00,,,0.00,Wunderground v.1.15,2013-09-16 22:20:00,
2013-09-17 11:30:00,87.7,55.9,29.76,SW,221,2.0,4.0,34,0.00,,,0.00,Wunderground v.1.15,2013-09-16 22:30:00,
2013-09-17 11:40:00,86.7,55.0,29.75,WSW,238,4.0,4.0,34,0.00,,,0.00,Wunderground v.1.15,2013-09-16 22:40:00,
2013-09-17 11:50:00,87.2,54.6,29.75,SE,136,3.0,3.0,33,0.00,,,0.00,Wunderground v.1.15,2013-09-16 22:50:00,
2013-09-17 11:55:00,87.0,54.4,29.75,NW,314,2.0,3.0,33,0.00,,,0.00,Wunderground v.1.15,2013-09-16 22:55:00,
2013-09-17 12:05:00,86.9,55.2,29.74,South,191,2.0,5.0,34,0.00,,,0.00,Wunderground v.1.15,2013-09-16 23:05:00,
2013-09-17 12:15:00,87.5,55.7,29.74,West,259,2.0,3.0,34,0.00,,,0.00,Wunderground v.1.15,2013-09-16 23:15:00,
2013-09-17 12:20:00,88.1,55.4,29.74,SSE,148,1.0,1.0,33,0.00,,,0.00,Wunderground v.1.15,2013-09-16 23:20:00,
2013-09-17 12:30:00,88.3,55.6,29.74,SW,222,1.0,1.0,33,0.00,,,0.00,Wunderground v.1.15,2013-09-16 23:30:00,
2013-09-17 12:35:00,88.5,55.7,29.74,SSW,200,2.0,2.0,33,0.00,,,0.00,Wunderground v.1.15,2013-09-16 23:35:00,
2013-09-17 12:45:00,88.6,55.0,29.74,WSW,238,2.0,2.0,32,0.00,,,0.00,Wunderground v.1.15,2013-09-16 23:45:00,
2013-09-17 12:55:00,87.8,54.3,29.73,SSW,202,3.0,6.0,32,0.00,,,0.00,Wunderground v.1.15,2013-09-16 23:55:00,
2013-09-17 13:05:00,88.1,53.7,29.73,South,189,2.0,2.0,31,0.00,,,0.00,Wunderground v.1.15,2013-09-17 00:05:00,
2013-09-17 13:15:00,88.3,52.9,29.73,SSW,208,3.0,6.0,30,0.00,,,0.00,Wunderground v.1.15,2013-09-17 00:15:00,
2013-09-17 13:20:00,87.7,52.4,29.73,SW,228,3.0,6.0,30,0.00,,,0.00,Wunderground v.1.15,2013-09-17 00:20:00,
2013-09-17 13:30:00,88.1,52.8,29.73,South,171,2.0,3.0,30,0.00,,,0.00,Wunderground v.1.15,2013-09-17 00:30:00,
2013-09-17 13:40:00,88.2,52.9,29.73,South,189,2.0,2.0,30,0.00,,,0.00,Wunderground v.1.15,2013-09-17 00:40:00,
2013-09-17 13:50:00,88.1,52.8,29.72,SW,236,2.0,2.0,30,0.00,,,0.00,Wunderground v.1.15,2013-09-17 00:50:00,
2013-09-17 13:55:00,87.5,53.1,29.72,SE,145,3.0,3.0,31,0.00,,,0.00,Wunderground v.1.15,2013-09-17 00:55:00,
2013-09-17 14:00:00,87.3,53.0,29.72,SSW,203,3.0,3.0,31,0.00,,,0.00,Wunderground v.1.15,2013-09-17 01:00:00,
2013-09-17 14:05:00,87.5,53.1,29.72,South,170,3.0,3.0,31,0.00,,,0.00,Wunderground v.1.15,2013-09-17 01:05:00,
2013-09-17 14:15:00,87.5,53.1,29.72,SW,224,2.0,2.0,31,0.00,,,0.00,Wunderground v.1.15,2013-09-17 01:15:00,
2013-09-17 14:25:00,87.2,53.7,29.71,WSW,247,2.0,3.0,32,0.00,,,0.00,Wunderground v.1.15,2013-09-17 01:25:00,
2013-09-17 14:30:00,87.0,53.6,29.71,SSE,148,1.0,1.0,32,0.00,,,0.00,Wunderground v.1.15,2013-09-17 01:30:00,
2013-09-17 14:35:00,86.9,53.5,29.71,South,187,2.0,4.0,32,0.00,,,0.00,Wunderground v.1.15,2013-09-17 01:35:00,
2013-09-17 14:45:00,86.4,53.9,29.71,SE,144,2.0,3.0,33,0.00,,,0.00,Wunderground v.1.15,2013-09-17 01:45:00,
2013-09-17 14:50:00,85.6,54.0,29.70,SSE,158,2.0,2.0,34,0.00,,,0.00,Wunderground v.1.15,2013-09-17 01:50:00,
2013-09-17 15:00:00,84.7,54.0,29.70,ESE,121,1.0,1.0,35,0.00,,,0.00,Wunderground v.1.15,2013-09-17 02:00:00,
2013-09-17 15:05:00,83.9,54.1,29.70,SE,131,1.0,1.0,36,0.00,,,0.00,Wunderground v.1.15,2013-09-17 02:05:00,
2013-09-17 15:15:00,82.8,54.6,29.70,SSE,158,1.0,1.0,38,0.00,,,0.00,Wunderground v.1.15,2013-09-17 02:15:00,
2013-09-17 15:25:00,81.8,54.4,29.70,SE,145,2.0,2.0,39,0.00,,,0.00,Wunderground v.1.15,2013-09-17 02:25:00,
2013-09-17 15:35:00,81.0,55.1,29.71,SSE,155,2.0,3.0,41,0.00,,,0.00,Wunderground v.1.15,2013-09-17 02:35:00,
2013-09-17 15:40:00,80.5,56.6,29.71,South,173,3.0,3.0,44,0.00,,,0.00,Wunderground v.1.15,2013-09-17 02:40:00,
2013-09-17 15:50:00,79.5,57.5,29.71,SE,139,4.0,4.0,47,0.00,,,0.00,Wunderground v.1.15,2013-09-17 02:50:00,
2013-09-17 15:55:00,79.0,57.6,29.71,WSW,241,4.0,4.0,48,0.00,,,0.00,Wunderground v.1.15,2013-09-17 02:55:00,
2013-09-17 16:05:00,78.0,57.3,29.71,SSE,164,4.0,4.0,49,0.00,,,0.00,Wunderground v.1.15,2013-09-17 03:05:00,
2013-09-17 16:15:00,77.2,56.6,29.71,ESE,122,4.0,6.0,49,0.00,,,0.00,Wunderground v.1.15,2013-09-17 03:15:00,
2013-09-17 16:25:00,76.5,56.5,29.72,SSE,162,3.0,4.0,50,0.00,,,0.00,Wunderground v.1.15,2013-09-17 03:25:00,
2013-09-17 16:35:00,75.8,56.4,29.72,SSW,197,4.0,6.0,51,0.00,,,0.00,Wunderground v.1.15,2013-09-17 03:35:00,
2013-09-17 16:40:00,75.4,56.0,29.72,South,183,4.0,4.0,51,0.00,,,0.00,Wunderground v.1.15,2013-09-17 03:40:00,
2013-09-17 16:50:00,74.7,56.4,29.72,South,169,3.0,4.0,53,0.00,,,0.00,Wunderground v.1.15,2013-09-17 03:50:00,
2013-09-17 16:55:00,74.4,56.2,29.72,SSW,193,3.0,4.0,53,0.00,,,0.00,Wunderground v.1.15,2013-09-17 03:55:00,
2013-09-17 17:05:00,73.9,56.2,29.73,SSE,160,2.0,4.0,54,0.00,,,0.00,Wunderground v.1.15,2013-09-17 04:05:00,
2013-09-17 17:10:00,73.6,56.4,29.73,SSE,167,2.0,3.0,55,0.00,,,0.00,Wunderground v.1.15,2013-09-17 04:10:00,
2013-09-17 17:15:00,73.2,56.1,29.73,South,172,3.0,3.0,55,0.00,,,0.00,Wunderground v.1.15,2013-09-17 04:15:00,
2013-09-17 17:20:00,72.9,56.3,29.73,SE,134,4.0,5.0,56,0.00,,,0.00,Wunderground v.1.15,2013-09-17 04:20:00,
2013-09-17 17:25:00,72.6,56.5,29.73,SSE,155,4.0,5.0,57,0.00,,,0.00,Wunderground v.1.15,2013-09-17 04:25:00,
2013-09-17 17:35:00,72.0,55.9,29.74,South,184,4.0,9.0,57,0.00,,,0.00,Wunderground v.1.15,2013-09-17 04:35:00,
2013-09-17 17:45:00,71.4,55.9,29.73,SSE,150,4.0,4.0,58,0.00,,,0.00,Wunderground v.1.15,2013-09-17 04:45:00,
2013-09-17 17:50:00,71.1,56.0,29.73,SE,140,4.0,6.0,59,0.00,,,0.00,Wunderground v.1.15,2013-09-17 04:50:00,
2013-09-17 18:00:00,70.6,55.6,29.74,SE,146,5.0,5.0,59,0.00,,,0.00,Wunderground v.1.15,2013-09-17 05:00:00,
2013-09-17 18:10:00,70.1,55.6,29.74,SSE,149,5.0,5.0,60,0.00,,,0.00,Wunderground v.1.15,2013-09-17 05:10:00,
2013-09-17 18:15:00,69.9,55.8,29.74,SE,134,5.0,6.0,61,0.00,,,0.00,Wunderground v.1.15,2013-09-17 05:15:00,
2013-09-17 18:25:00,69.5,55.5,29.74,SSE,150,4.0,5.0,61,0.00,,,0.00,Wunderground v.1.15,2013-09-17 05:25:00,
2013-09-17 18:30:00,69.3,55.7,29.74,South,172,4.0,5.0,62,0.00,,,0.00,Wunderground v.1.15,2013-09-17 05:30:00,
2013-09-17 18:35:00,69.1,55.5,29.74,SE,127,4.0,5.0,62,0.00,,,0.00,Wunderground v.1.15,2013-09-17 05:35:00,
2013-09-17 18:45:00,68.6,55.5,29.75,SE,131,3.0,4.0,63,0.00,,,0.00,Wunderground v.1.15,2013-09-17 05:45:00,
2013-09-17 18:55:00,68.3,55.6,29.75,ESE,117,4.0,4.0,64,0.00,,,0.00,Wunderground v.1.15,2013-09-17 05:55:00,
2013-09-17 19:15:00,67.6,55.0,29.75,East,98,4.0,6.0,64,0.00,,,0.00,Wunderground v.1.15,2013-09-17 06:15:00,
2013-09-17 19:25:00,67.3,54.7,29.75,SE,127,4.0,4.0,64,0.00,,,0.00,Wunderground v.1.15,2013-09-17 06:25:00,
2013-09-17 19:30:00,67.2,55.0,29.75,SSE,156,3.0,3.0,65,0.00,,,0.00,Wunderground v.1.15,2013-09-17 06:30:00,
2013-09-17 19:40:00,67.1,54.9,29.75,East,84,4.0,4.0,65,0.00,,,0.00,Wunderground v.1.15,2013-09-17 06:40:00,
2013-09-17 19:45:00,67.0,54.8,29.75,ESE,110,4.0,6.0,65,0.00,,,0.00,Wunderground v.1.15,2013-09-17 06:45:00,
2013-09-17 19:55:00,66.7,55.0,29.75,ESE,103,3.0,4.0,66,0.00,,,0.00,Wunderground v.1.15,2013-09-17 06:55:00,
2013-09-17 20:00:00,66.6,54.9,29.75,East,101,3.0,3.0,66,0.00,,,0.00,Wunderground v.1.15,2013-09-17 07:00:00,
2013-09-17 20:05:00,66.5,55.2,29.75,SSE,160,3.0,5.0,67,0.00,,,0.00,Wunderground v.1.15,2013-09-17 07:05:00,
2013-09-17 20:15:00,66.3,55.0,29.75,South,184,5.0,5.0,67,0.00,,,0.00,Wunderground v.1.15,2013-09-17 07:15:00,
2013-09-17 20:20:00,66.1,55.2,29.76,SE,140,5.0,5.0,68,0.00,,,0.00,Wunderground v.1.15,2013-09-17 07:20:00,
2013-09-17 20:30:00,65.9,55.0,29.76,SE,124,4.0,5.0,68,0.00,,,0.00,Wunderground v.1.15,2013-09-17 07:30:00,
2013-09-17 20:35:00,65.8,54.9,29.76,SSE,150,4.0,5.0,68,0.00,,,0.00,Wunderground v.1.15,2013-09-17 07:35:00,
2013-09-17 20:45:00,65.5,55.1,29.76,SSE,153,5.0,8.0,69,0.00,,,0.00,Wunderground v.1.15,2013-09-17 07:45:00,
2013-09-17 20:55:00,65.3,54.9,29.76,SSE,152,4.0,6.0,69,0.00,,,0.00,Wunderground v.1.15,2013-09-17 07:55:00,
2013-09-17 21:00:00,65.2,54.8,29.75,SE,136,5.0,6.0,69,0.00,,,0.00,Wunderground v.1.15,2013-09-17 08:00:00,
2013-09-17 21:05:00,65.1,55.1,29.75,ESE,110,5.0,6.0,70,0.00,,,0.00,Wunderground v.1.15,2013-09-17 08:05:00,
2013-09-17 21:15:00,65.0,55.0,29.75,SSE,161,6.0,8.0,70,0.00,,,0.00,Wunderground v.1.15,2013-09-17 08:15:00,
2013-09-17 21:20:00,64.9,54.9,29.75,SSE,163,5.0,8.0,70,0.00,,,0.00,Wunderground v.1.15,2013-09-17 08:20:00,
2013-09-17 21:30:00,64.7,55.1,29.75,SE,146,7.0,8.0,71,0.00,,,0.00,Wunderground v.1.15,2013-09-17 08:30:00,
2013-09-17 21:35:00,64.5,54.9,29.75,ESE,114,6.0,8.0,71,0.00,,,0.00,Wunderground v.1.15,2013-09-17 08:35:00,
2013-09-17 21:45:00,64.2,55.0,29.76,NE,56,4.0,5.0,72,0.00,,,0.00,Wunderground v.1.15,2013-09-17 08:45:00,
2013-09-17 21:55:00,63.8,55.0,29.76,ESE,111,5.0,5.0,73,0.00,,,0.00,Wunderground v.1.15,2013-09-17 08:55:00,
2013-09-17 22:00:00,63.5,54.7,29.76,ESE,104,5.0,5.0,73,0.00,,,0.00,Wunderground v.1.15,2013-09-17 09:00:00,
2013-09-17 22:05:00,63.4,54.6,29.76,SE,134,5.0,5.0,73,0.00,,,0.00,Wunderground v.1.15,2013-09-17 09:05:00,
2013-09-17 22:15:00,63.2,54.8,29.76,SSE,162,5.0,5.0,74,0.00,,,0.00,Wunderground v.1.15,2013-09-17 09:15:00,
2013-09-17 22:25:00,62.9,54.5,29.76,SE,124,4.0,5.0,74,0.00,,,0.00,Wunderground v.1.15,2013-09-17 09:25:00,
2013-09-17 22:35:00,62.7,54.3,29.76,SE,138,4.0,9.0,74,0.00,,,0.00,Wunderground v.1.15,2013-09-17 09:35:00,
2013-09-17 22:45:00,62.5,54.5,29.76,SE,145,4.0,4.0,75,0.00,,,0.00,Wunderground v.1.15,2013-09-17 09:45:00,
2013-09-17 22:55:00,62.2,54.2,29.76,SSE,158,5.0,5.0,75,0.00,,,0.00,Wunderground v.1.15,2013-09-17 09:55:00,
2013-09-17 23:05:00,61.9,54.2,29.76,SE,131,6.0,9.0,76,0.00,,,0.00,Wunderground v.1.15,2013-09-17 10:05:00,
2013-09-17 23:15:00,61.7,54.1,29.76,SE,131,5.0,7.0,76,0.00,,,0.00,Wunderground v.1.15,2013-09-17 10:15:00,
2013-09-17 23:20:00,61.6,54.3,29.76,SSE,152,5.0,7.0,77,0.00,,,0.00,Wunderground v.1.15,2013-09-17 10:20:00,
2013-09-17 23:25:00,61.5,54.2,29.75,SSE,155,5.0,7.0,77,0.00,,,0.00,Wunderground v.1.15,2013-09-17 10:25:00,
2013-09-17 23:35:00,61.2,53.9,29.75,East,91,4.0,5.0,77,0.00,,,0.00,Wunderground v.1.15,2013-09-17 10:35:00,
2013-09-17 23:40:00,61.2,53.9,29.75,ESE,105,6.0,7.0,77,0.00,,,0.00,Wunderground v.1.15,2013-09-17 10:40:00,
2013-09-17 23:50:00,61.0,53.7,29.75,SE,133,5.0,5.0,77,0.00,,,0.00,Wunderground v.1.15,2013-09-17 10:50:00,
2013-09-17 23:55:00,60.9,54.0,29.75,SSE,153,5.0,6.0,78,0.00,,,0.00,Wunderground v.1.15,2013-09-17 10:55:00,